Location: Santa Cristina
(46.5667°N, 11.7167°E)
Time: 05:11:16
(UTC+00:00)

Okean 2 - Pass Details

Date: 21 April 2021
Orbit: 559 x 576 km, 82.5° (Epoch: 14 May)

Event Time Altitude Azimuth Distance (km) Brightness Sun altitude
Exits shadow 03:31:49 - 200° (SSW) 2,643 6.4 -7.7°
Reaches altitude 10° 03:33:44 10° 204° (SSW) 1,874 5.6 -7.4°
Maximum altitude 03:37:47 54° 282° (WNW) 707 3.6 -6.8°
Drops below altitude 10° 03:41:53 10° 0° (N) 1,896 6.4 -6.2°
Sets 03:44:08 0° 5° (N) 2,801 7.4 -5.8°
